Vertical_Velocity
2 -2 -1 2 2 0 2 3 -2 -2 -1 2 3 -1 1 1 -1 -4 2 -0 -2 -4 -6 -0 1 -2 -0 -0 -0 -1 -1 1
0 2 3 3 2 3 3 3 3 0 -4 1 1 3 2 0 1 0 -2 2 5 4 -2 -4 -5 -5 -4 -3 -1 -1 -1 -2
4 5 2 1 1 1 3 1 4 4 -1 -2 3 -1 2 -0 2 0 1 -0 -1 1 0 5 2 2 0 -1 -3 -3 -1 -2
-2 1 1 1 -2 -0 -1 1 3 5 1 -6 -2 3 -1 1 1 1 2 4 3 -0 -3 0 1 -2 -2 1 2 -0 0 -0
-1 1 4 2 -4 -3 -2 -0 -3 -0 2 -3 -0 0 2 -1 0 1 -2 -1 2 1 -1 0 2 0 -1 -1 -0 -1 0 0
0 1 -3 -2 5 -3 -3 -3 -1 -0 -2 -0 -4 -4 -1 -2 1 -1 3 1 0 2 -1 1 1 1 2 -0 -0 2 0 -1
1 1 -0 -2 -3 -2 -1 -3 -1 1 1 -0 -1 -3 -0 -1 -0 -0 1 1 2 1 -1 -0 0 0 0 -0 -0 0 -0 -0
2 -4 -3 -0 -0 -3 -4 -1 -4 -6 3 4 2 -1 0 0 2 0 1 0 2 2 0 1 2 2 1 1 1 1 1 0
-11 -2 7 -0 5 10 4 -3 1 -3 -13 2 3 4 1 2 2 1 -0 5 3 2 -2 0 2 1 1 1 2 1 1 1
6 -2 -1 3 -2 5 5 5 6 -4 2 -8 2 3 4 5 5 1 5 -0 4 2 1 -0 4 4 3 0 1 1 1 -0
1 3 -5 5 4 6 7 7 2 3 -1 3 -5 -3 1 -2 -0 9 1 2 3 4 2 1 -0 2 4 4 2 1 1 1
32 8 -1 0 6 4 -0 -3 1 3 -5 -3 3 6 5 -8 1 2 3 1 2 4 5 2 3 5 3 4 5 3 2 1
-8 -1 11 10 -4 -8 -1 -16 9 -5 3 5 -8 1 6 2 9 6 7 2 0 2 3 5 1 0 3 4 5 4 3 4
8 1 4 -8 6 -7 2 14 5 14 11 -1 1 -6 -2 0 -1 -3 1 3 2 2 1 2 6 2 -4 4 -0 3 4 3
3 -0 7 8 10 0 14 17 -4 -3 -7 4 -0 -2 8 2 1 9 5 2 -5 2 -1 -1 2 3 4 -6 -5 -4 -1 -0
2 12 11 12 12 -1 -8 -6 0 -10 -5 3 2 1 -1 2 1 -2 1 3 -2 2 11 -5 -0 -2 5 3 2 -1 -7 -1
2 4 25 5 12 12 3 -2 0 2 1 3 2 5 -2 -3 1 -0 -1 1 -1 2 1 5 1 5 -1 -1 6 2 0 -5
-21 -7 -3 14 5 10 10 6 9 -6 4 4 -0 -1 1 6 4 5 2 2 2 1 3 11 1 3 6 4 1 -4 -5 -4
-3 -8 -8 -7 14 27 11 0 4 0 -13 1 8 1 -8 -5 -5 -3 -3 1 8 10 -1 7 3 0 6 1 6 4 3 3
7 0 -9 -16 -22 20 18 41 43 17 44 22 6 8 21 12 4 6 3 1 -2 4 -3 7 6 -0 4 7 10 6 6 4
Height
1487 1491 1495 1497 1499 1502 1505 1507 1509 1511 1514 1515 1517 1519 1521 1522 1523 1525 1528 1529 1531 1532 1532 1532 1533 1536 1538 1539 1540 1541 1541 1541
1488 1490 1492 1495 1497 1501 1503 1506 1507 1509 1512 1514 1516 1518 1519 1521 1523 1524 1526 1528 1530 1532 1532 1532 1534 1535 1538 1540 1540 1541 1541 1541
1488 1488 1491 1494 1497 1499 1502 1505 1507 1507 1509 1512 1514 1516 1518 1519 1522 1523 1525 1527 1529 1530 1531 1531 1533 1534 1536 1538 1540 1541 1541 1540
1485 1488 1489 1493 1495 1497 1499 1502 1505 1505 1506 1508 1512 1514 1516 1519 1520 1522 1524 1526 1527 1529 1530 1530 1531 1533 1534 1535 1537 1539 1539 1539
1479 1483 1487 1488 1490 1493 1497 1499 1501 1503 1504 1505 1509 1512 1514 1516 1518 1520 1521 1524 1526 1527 1528 1529 1530 1532 1534 1535 1536 1538 1539 1539
1475 1478 1482 1485 1488 1489 1491 1494 1496 1498 1499 1502 1505 1508 1510 1513 1515 1518 1520 1522 1524 1526 1527 1528 1529 1531 1532 1534 1536 1536 1537 1538
1471 1473 1475 1478 1482 1486 1487 1489 1492 1495 1496 1497 1500 1503 1506 1510 1513 1515 1518 1519 1521 1523 1525 1526 1528 1529 1531 1533 1534 1535 1536 1537
1463 1466 1470 1472 1473 1475 1477 1482 1486 1490 1493 1493 1495 1499 1503 1506 1508 1511 1514 1516 1518 1521 1523 1525 1526 1528 1529 1531 1533 1534 1535 1536
1459 1461 1462 1463 1464 1466 1468 1471 1475 1480 1486 1490 1492 1495 1499 1502 1505 1507 1510 1513 1515 1517 1520 1522 1524 1525 1527 1529 1531 1532 1534 1535
1450 1453 1456 1458 1459 1461 1465 1467 1468 1473 1476 1483 1488 1492 1497 1501 1501 1503 1507 1510 1512 1514 1515 1519 1522 1523 1524 1526 1529 1531 1532 1534
1441 1444 1446 1450 1456 1459 1463 1465 1466 1467 1470 1473 1480 1486 1490 1495 1500 1501 1503 1505 1508 1510 1512 1515 1518 1521 1524 1525 1527 1530 1531 1532
1441 1439 1442 1445 1452 1455 1458 1459 1462 1461 1463 1467 1473 1478 1482 1487 1493 1497 1499 1500 1504 1507 1510 1512 1516 1520 1522 1525 1526 1528 1530 1531
1432 1437 1436 1435 1439 1442 1446 1445 1448 1452 1455 1458 1464 1471 1473 1478 1486 1487 1492 1494 1498 1503 1506 1509 1512 1515 1519 1522 1525 1526 1528 1529
1431 1431 1430 1432 1432 1433 1438 1441 1446 1446 1446 1450 1456 1461 1467 1472 1477 1480 1487 1489 1493 1496 1501 1503 1505 1509 1512 1517 1522 1525 1525 1526
1424 1425 1426 1426 1429 1437 1438 1437 1437 1441 1441 1442 1444 1450 1456 1461 1466 1469 1476 1481 1486 1488 1493 1498 1499 1503 1506 1510 1513 1515 1519 1523
1422 1422 1421 1420 1421 1422 1422 1421 1421 1422 1427 1433 1437 1440 1445 1450 1458 1464 1470 1473 1477 1482 1486 1490 1494 1497 1501 1504 1504 1506 1511 1517
1415 1416 1419 1416 1414 1412 1413 1413 1418 1420 1419 1420 1425 1430 1435 1441 1447 1453 1458 1463 1470 1475 1481 1483 1487 1492 1494 1498 1500 1502 1505 1507
1419 1414 1409 1407 1409 1409 1404 1407 1407 1409 1410 1409 1414 1419 1424 1427 1434 1440 1446 1453 1460 1465 1474 1478 1481 1486 1490 1494 1496 1497 1500 1504
1418 1414 1413 1404 1404 1405 1402 1400 1401 1396 1398 1398 1400 1400 1407 1415 1422 1427 1434 1442 1451 1458 1466 1471 1475 1480 1486 1490 1494 1496 1499 1502
1415 1412 1408 1408 1404 1404 1400 1397 1396 1394 1369 1382 1390 1397 1396 1402 1409 1417 1425 1433 1443 1450 1456 1463 1468 1474 1480 1485 1489 1493 1496 1498